Location: Unspecified
(0.0000°N, 0.0000°E)
Time: 03:50:32
(UTC+00:00)

Hubble Space Telescope - Visible Passes

Search period start: 25 February 2018 00:00
Search period end: 07 March 2018 00:00
Orbit: 537 x 541 km, 28.5° (Epoch: 24 February)

Date Brightness Start Highest point End Pass type
(mag) Time Alt. Az. Time Alt. Az. Time Alt. Az.
27 Feb 3.2 20:05:13 10° SSW 20:06:18 15° SSW 20:06:18 15° SSW visible
28 Feb 2.5 19:54:35 10° SW 19:56:50 25° SSW 19:56:50 25° SSW visible
01 Mar 1.5 19:44:06 10° SW 19:47:26 43° S 19:47:26 43° S visible
02 Mar 0.6 19:33:42 10° SW 19:37:50 71° SSE 19:38:05 68° ESE visible
03 Mar 0.7 19:23:25 10° WSW 19:27:33 80° NNW 19:28:47 44° NE visible
04 Mar 3.0 05:38:10 10° NNW 05:41:11 19° NNE 05:44:12 10° ENE visible
04 Mar 1.3 19:13:14 10° WSW 19:17:17 54° NNW 19:19:31 24° NE visible
05 Mar 2.5 05:27:26 10° NNW 05:30:56 26° NNE 05:34:27 10° E visible
05 Mar 1.9 19:03:10 10° W 19:07:01 37° NNW 19:10:15 13° NE visible
06 Mar 1.9 05:17:06 11° NW 05:20:41 37° NNE 05:24:31 10° E visible
06 Mar 2.5 18:53:14 10° W 18:56:45 27° NNW 19:00:16 10° NNE visible
